DW9433 Weather Reports


Display with metric or nautical units.
time (UTC)temp
F
wind
direction
speed
MPH
gust
MPH
rain 1hr
in
rain 24hr
in
rain mn
in
humidity
%
barometer
mb
20260510090041 57 48 0.0 0.0 0.00 0.00 0.00 91 1012.8
20260510084540 57 48 0.0 0.0 0.00 0.00 0.00 90 1012.6
20260510083042 57 48 0.0 0.0 0.00 0.00 0.00 91 1012.8
20260510081537 57 48 0.0 0.0 0.00 0.00 0.00 90 1012.7
20260510080036 57 48 0.0 0.0 0.00 0.00 0.00 90 1012.6
20260510074536 57 48 0.0 0.0 0.00 0.00 0.00 90 1012.6
20260510073042 57 48 0.0 0.0 0.00 0.00 0.00 89 1012.5
20260510071532 57 48 0.0 0.0 0.00 0.00 0.00 89 1012.5
20260510070034 57 48 0.0 0.0 0.00 0.00 0.00 89 1012.5
20260510064530 57 48 0.0 0.0 0.00 0.00 0.00 88 1012.6
20260510063028 58 48 0.0 0.0 0.00 0.00 0.00 88 1012.4
20260510061525 58 48 0.0 0.0 0.00 0.00 0.00 88 1012.1
20260510060026 58 48 0.0 0.0 0.00 0.00 0.00 88 1012.0
20260510054524 58 48 0.0 0.0 0.00 0.00 0.00 88 1012.0
20260510053044 58 48 0.0 0.0 0.00 0.00 0.00 87 1012.0
20260510051521 59 48 0.0 0.0 0.00 0.00 0.00 86 1012.0
20260510050018 59 48 0.0 0.0 0.00 0.00 0.00 86 1012.0
20260510044518 60 48 0.0 0.0 0.00 0.00 0.00 85 1012.0
20260510043036 60 48 0.0 0.0 0.00 0.00 0.00 85 1011.9
20260510041523 60 48 0.0 0.0 0.00 0.00 0.00 84 1012.0
20260510040032 61 48 0.0 0.0 0.00 0.00 0.00 83 1012.1
20260510034516 61 48 0.0 0.0 0.00 0.00 0.00 83 1012.1
20260510033016 62 48 0.0 0.0 0.00 0.00 0.00 81 1012.1
20260510031521 63 48 0.0 0.0 0.00 0.00 0.00 80 1012.0
20260510030014 63 48 0.0 0.0 0.00 0.00 0.00 79 1011.9
20260510024515 64 48 0.0 0.0 0.00 0.00 0.00 76 1011.9
20260510023012 65 48 0.0 0.0 0.00 0.00 0.00 74 1011.8
20260510021522 66 48 0.0 0.0 0.00 0.00 0.00 73 1011.5
20260510020008 67 48 0.0 0.0 0.00 0.00 0.00 70 1011.2
20260510014506 68 48 0.0 0.0 0.00 0.00 0.00 68 1011.0
20260510013005 69 48 0.0 0.0 0.00 0.00 0.00 65 1010.8
20260510011505 70 48 0.0 0.0 0.00 0.00 0.00 62 1010.6
20260510010004 72 48 0.0 0.0 0.00 0.00 0.00 59 1010.4
20260510004504 74 48 0.0 0.0 0.00 0.00 0.00 57 1010.2
20260510003005 76 28 0.0 0.0 0.00 0.00 0.00 53 1010.0
20260510001503 78 28 0.0 0.0 0.00 0.00 0.00 47 1009.9
20260510000003 79 28 0.0 0.0 0.00 0.00 0.00 40 1009.7
20260509234502 80 28 0.0 0.0 0.00 0.00 0.00 38 1009.6
20260509233001 80 30 0.0 0.0 0.00 0.00 0.00 38 1009.4
20260509231601 81 33 0.0 0.0 0.00 0.00 0.00 36 1009.4
20260509230100 81 32 0.0 1.0 0.00 0.00 0.00 37 1009.3
20260509224600 81 24 0.0 0.0 0.00 0.00 0.00 38 1009.2
20260509223102 81 24 0.0 0.0 0.00 0.00 0.00 40 1009.2
20260509221558 82 25 0.0 0.0 0.00 0.00 0.00 39 1009.3
20260509214628 82 201 0.0 0.0 0.00 0.00 0.00 34 1009.4
20260509213056 83 201 0.0 0.0 0.00 0.00 0.00 37 1009.5
20260509211555 83 33 0.0 0.0 0.00 0.00 0.00 36 1009.6
20260509210105 83 147 0.0 4.0 0.00 0.00 0.00 37 1009.6
20260509204554 83 174 0.0 0.0 0.00 0.00 0.00 39 1009.7
20260509203102 83 113 0.0 3.0 0.00 0.00 0.00 37 1009.7
20260509201553 84 340 0.0 2.0 0.00 0.00 0.00 37 1009.8
20260509200051 83 341 0.0 0.0 0.00 0.00 0.00 34 1009.9
20260509194551 83 206 0.0 0.0 0.00 0.00 0.00 37 1010.1
20260509193055 83 258 0.0 0.0 0.00 0.00 0.00 37 1010.0
20260509191558 83 255 0.0 0.0 0.00 0.00 0.00 43 1010.1
20260509190051 82 36 0.0 4.0 0.00 0.00 0.00 43 1010.1
20260509184555 82 163 0.0 0.0 0.00 0.00 0.00 47 1010.2
20260509183050 81 162 0.0 3.0 0.00 0.00 0.00 46 1010.3
20260509181539 81 28 0.0 0.0 0.00 0.00 0.00 47 1010.4
20260509180038 81 30 0.0 3.0 0.00 0.00 0.00 49 1010.6
20260509174545 80 24 0.0 4.0 0.00 0.00 0.00 48 1010.6
20260509173034 79 38 0.0 0.0 0.00 0.00 0.00 51 1010.6
20260509171532 79 24 2.0 8.0 0.00 0.00 0.00 57 1010.6
20260509170029 79 15 0.0 2.0 0.00 0.00 0.00 57 1010.7
20260509164528 78 17 0.0 3.0 0.00 0.00 0.00 55 1010.8
20260509163037 78 38 0.0 1.0 0.00 0.00 0.00 57 1010.8
20260509161524 78 71 0.0 0.0 0.00 0.00 0.00 57 1010.8
20260509160023 77 36 0.0 1.0 0.00 0.00 0.00 56 1010.6
20260509154521 76 19 0.0 0.0 0.00 0.00 0.00 58 1010.5
20260509153022 76 350 0.0 0.0 0.00 0.00 0.00 62 1010.3
20260509151516 76 338 0.0 0.0 0.00 0.00 0.00 63 1010.4
20260509150014 75 77 0.0 1.0 0.00 0.00 0.00 66 1010.5
20260509144511 74 141 0.0 0.0 0.00 0.00 0.00 68 1010.5
20260509143008 73 254 0.0 1.0 0.00 0.00 0.00 70 1010.6
20260509141505 72 255 0.0 1.0 0.00 0.00 0.00 71 1010.6
20260509140002 71 360 0.0 0.0 0.00 0.00 0.00 72 1010.4
20260509134600 70 258 0.0 2.0 0.00 0.00 0.00 75 1010.5
20260509133056 69 188 0.0 2.0 0.00 0.00 0.00 77 1010.4
20260509131552 67 221 0.0 0.0 0.00 0.00 0.00 80 1010.3
20260509130100 65 253 0.0 0.0 0.00 0.00 0.00 82 1010.3
20260509124551 64 253 0.0 0.0 0.00 0.00 0.00 84 1010.2
20260509123042 62 255 0.0 0.0 0.00 0.00 0.00 86 1010.1
20260509121542 61 154 0.0 0.0 0.00 0.00 0.00 88 1009.9
20260509120040 60 173 0.0 0.0 0.00 0.00 0.00 89 1009.9
20260509114542 59 173 0.0 0.0 0.00 0.00 0.00 89 1009.8
20260509113042 59 173 0.0 0.0 0.00 0.00 0.00 90 1009.7
20260509111537 58 169 0.0 0.0 0.00 0.00 0.00 90 1009.3
20260509110037 58 150 0.0 0.0 0.00 0.00 0.00 89 1009.0
20260509104536 58 169 0.0 0.0 0.00 0.00 0.00 89 1009.0
20260509103043 58 169 0.0 2.0 0.00 0.00 0.00 89 1009.0
20260509101548 58 175 0.0 0.0 0.00 0.00 0.00 90 1009.1
20260509100034 57 175 0.0 0.0 0.00 0.00 0.00 91 1009.1
20260509094536 57 175 0.0 0.0 0.00 0.00 0.00 89 1009.4
20260509093032 58 175 0.0 0.0 0.00 0.00 0.00 88 1009.5
20260509091529 58 175 0.0 0.0 0.00 0.00 0.00 87 1009.2